Regional Weather Roundup
Issued by NWS

Home | Current Version | Previous Version | Text Only | Print | Product List | Glossary On
Versions: 1 2 3 4 5 6 7 8 9 10 11 12 13 14 15 16 17 18 19 20 21 22 23 24 25 26 27 28 29 30 31 32 33 34 35 36 37 38 39 40 41 42 43 44 45 46 47 48 49 50
000
ASUS45 KCYS 251510
RWRWY

WYOMING REGIONAL WEATHER ROUNDUP
NATIONAL WEATHER SERVICE CHEYENNE WY
900 AM MDT FRI JUL 25 2014

NOTE:  "FAIR" INDICATES FEW OR NO CLOUDS BELOW 12,000 FEET
WITH NO SIGNIFICANT WEATHER AND/OR OBSTRUCTIONS TO VISIBILITY.

WYZ001-251600-
YELLOWSTONE NATIONAL PARK

CITY           SKY/WX    TMP DP  RH WIND       PRES   REMARKS
LK YELLOWSTONE   N/A     49  35  58 CALM      30.28S
W YELLOWSTONE  NOT AVBL

$$
WYZ002>013-054>058-071-098>099-251600-
NORTHERN WYOMING

CITY           SKY/WX    TMP DP  RH WIND       PRES   REMARKS
JACKSON        SUNNY     36  27  69 CALM      30.21F
CODY           NOT AVBL
GREYBULL       SUNNY     69  38  32 CALM      30.00S
WORLAND        SUNNY     70  36  28 CALM      30.02S
SHERIDAN       SUNNY     67  51  56 CALM      30.00F
BUFFALO        SUNNY     67  48  50 SE12      30.06F
GILLETTE       SUNNY     67  39  35 VRB3      30.05F
HULETT         FAIR      66  41  39 MISG      30.06
NEWCASTLE      FAIR      72  41  33 CALM      30.02

$$
WYZ014>020-022>026-101>103-251600-
CENTRAL WYOMING

CITY           SKY/WX    TMP DP  RH WIND       PRES   REMARKS
BIG PINEY      SUNNY     59  28  30 E5        30.23S
PINEDALE       SUNNY     57  34  41 NW6       30.24S
DUBOIS         FAIR      68  18  14 W16G24    30.17F
LANDER         SUNNY     68  30  24 NW6       30.07S
RIVERTON       SUNNY     69  45  41 N7        30.08S
CASPER         MOSUNNY   66  50  56 E5        30.09F
DOUGLAS        MOSUNNY   68  45  43 VRB3      30.09F

$$
WYZ021-027>030-104>119-251600-
SOUTHERN WYOMING

CITY           SKY/WX    TMP DP  RH WIND       PRES   REMARKS
EVANSTON       MOSUNNY   66  35  31 CALM      30.24R
KEMMERER       SUNNY     63  32  31 N3        30.25S
FORT BRIDGER   FAIR      69  33  25 W3        30.25S
ROCK SPRINGS   SUNNY     66  33  29 S3        30.20R
DIXON          FAIR      77  46  33 SW5       30.23S
RAWLINS        SUNNY     77  46  33 W10       30.19F
SARATOGA       FAIR      77  43  29 S14G20    30.23S
LARAMIE        MOSUNNY   71  45  39 SW10      30.24S
CHEYENNE       PTSUNNY   72  49  44 VRB5      30.15R
TORRINGTON     SUNNY     71  55  56 S3        30.05S
PINE BLUFFS    FAIR      72  54  53 N10       30.11R

$$


USA.gov is the U.S. government's official web portal to all federal, state and local government web resources and services.